Temperature
24 22 22 22 22 24 24 23 23 24 25 24 23 23 22 22 22 21 21 21 22 22 22 22 22 22 22 21 21 21 21 20 20 20 20 19 19 19 19 19 18 18 18 18
23 23 24 24 24 24 24 23 23 24 25 24 23 23 22 22 22 22 21 21 22 22 22 22 22 21 21 21 21 21 21 20 20 20 20 19 19 19 19 19 19 18 18 18
24 24 25 25 24 24 24 23 24 24 24 24 23 23 22 22 22 22 22 22 22 22 21 22 22 21 21 21 21 21 21 20 20 20 19 19 19 19 19 19 19 19 18 18
24 25 25 25 25 25 24 25 25 24 23 22 23 22 22 21 21 21 21 21 21 21 21 22 22 21 21 21 21 21 21 20 20 20 19 19 19 19 19 19 18 18 18 18
24 25 25 25 25 25 24 25 24 23 22 21 21 21 21 20 21 21 21 21 21 21 22 22 22 21 21 21 21 21 21 20 20 20 19 19 19 19 19 18 18 18 18 18
24 25 25 25 26 25 25 24 22 20 20 21 21 21 21 20 21 21 21 21 21 22 22 22 22 22 21 21 21 21 21 20 20 20 19 19 19 19 19 18 18 18 18 18
24 25 25 25 25 25 24 22 21 22 20 21 21 21 21 21 21 21 21 21 21 22 21 21 22 22 21 21 21 21 21 20 20 20 19 19 19 19 19 18 18 18 18 18
23 23 25 25 25 24 23 22 22 22 21 21 21 20 21 22 21 21 21 21 21 21 21 22 22 22 21 21 21 21 21 20 20 19 19 19 19 19 18 18 18 18 18 18
22 23 25 25 25 24 23 21 22 20 21 21 20 20 21 21 21 20 21 21 20 21 21 21 21 21 21 21 21 21 20 20 20 20 19 19 19 19 18 18 18 18 18 17
22 23 24 25 25 24 23 21 19 20 20 21 21 21 21 21 21 20 20 20 21 21 21 21 21 21 21 21 21 21 20 20 20 20 19 19 19 18 18 18 18 18 18 17
22 22 23 24 24 24 22 21 19 18 19 20 21 21 22 21 20 20 20 20 21 21 21 21 21 21 21 21 20 20 20 20 20 20 19 19 19 18 18 18 18 18 17 17
20 20 21 22 23 23 23 22 20 21 20 18 19 20 22 20 20 20 20 20 21 21 21 21 21 21 20 20 20 20 19 19 19 19 19 19 18 18 18 18 18 17 17 17
20 20 21 22 22 22 23 21 20 18 18 17 19 21 21 19 19 20 19 20 20 21 21 21 20 20 20 20 20 20 19 19 19 19 19 19 18 18 18 17 17 17 17 17
20 19 20 22 22 22 22 22 20 19 19 18 19 20 20 20 19 19 19 20 20 20 20 21 20 20 20 20 19 19 19 19 19 19 18 18 18 18 17 17 17 17 16 16
19 20 21 21 21 22 22 22 21 20 20 20 20 20 20 19 19 19 19 19 19 20 20 20 20 20 20 20 19 19 19 18 18 18 18 18 17 17 17 16 16 16 16 16
17 19 20 21 22 21 22 22 22 21 20 20 20 20 19 19 19 19 19 19 19 19 20 20 20 20 20 19 19 19 19 18 18 18 18 18 17 17 16 16 16 16 16 16
17 18 19 20 20 22 21 21 21 21 20 20 20 20 19 18 18 18 19 19 19 20 20 20 20 20 19 19 19 19 18 18 18 18 17 17 17 16 16 16 16 16 15 15
16 16 16 18 20 21 20 20 21 20 20 19 19 19 18 18 19 19 20 20 20 20 20 19 19 19 19 19 19 18 18 17 17 17 17 17 16 16 16 16 15 15 15 15
15 16 16 16 18 19 20 20 20 20 20 19 19 19 18 18 18 18 19 20 20 20 20 19 19 19 19 18 18 18 17 17 17 17 17 16 16 16 16 15 15 15 15 15
14 15 16 16 18 19 20 20 20 20 19 19 18 17 17 18 17 18 19 19 19 19 19 19 19 18 18 18 18 17 17 17 17 16 16 16 16 15 15 15 15 14 14 14
16 15 16 16 17 18 19 19 20 20 19 19 18 18 17 17 18 19 19 19 19 19 19 19 19 18 18 17 17 17 17 17 16 16 16 15 15 15 15 14 14 14 14 13
16 16 15 15 17 18 18 18 18 18 19 19 18 19 18 19 19 19 19 19 19 19 19 18 18 18 17 17 17 17 16 16 16 15 15 15 15 14 14 14 14 14 13 13
14 15 14 15 16 17 17 18 19 19 19 19 19 19 19 18 18 18 18 18 18 18 18 18 18 17 17 16 16 16 16 16 15 15 15 15 14 14 14 14 13 13 13 13
15 13 13 14 15 16 17 18 19 19 19 19 19 19 19 18 18 18 18 18 18 18 17 17 17 17 16 16 16 15 15 15 15 15 14 14 14 14 13 13 13 13 13 12
14 14 13 14 15 16 18 18 19 19 19 19 19 18 18 18 18 18 17 17 17 17 17 17 17 16 16 16 15 15 15 15 15 14 14 14 14 13 13 13 13 13 12 12
13 13 14 15 15 15 17 18 18 18 18 18 18 18 18 18 18 17 17 17 17 17 17 16 16 16 16 15 15 15 15 14 14 14 14 14 13 13 13 13 12 12 12 12
Wind_Speed
3 3 5 9 10 6 3 3 5 6 3 1 3 4 3 4 4 5 5 6 6 7 5 4 5 6 6 5 5 5 6 5 5 3 3 2 2 1 1 1 1 1 1 1
2 6 9 6 5 5 5 4 4 4 1 2 1 4 3 3 6 6 7 7 7 5 3 4 5 5 6 7 6 5 5 5 5 3 2 2 2 1 1 1 1 0 1 1
8 7 3 5 5 4 5 6 5 3 2 3 2 5 2 2 2 2 3 4 5 7 7 6 6 6 6 7 7 7 6 5 5 4 3 2 2 1 1 1 1 1 0 1
6 6 3 3 5 5 5 5 5 3 1 1 2 3 6 2 2 4 4 4 5 6 6 6 6 6 6 7 6 6 5 5 4 5 4 4 3 2 2 1 1 1 1 0
7 4 4 5 6 6 5 2 3 2 3 1 1 2 7 2 3 6 6 6 6 7 8 8 7 7 6 6 6 6 6 5 4 4 5 5 3 2 1 0 0 1 1 1
6 3 4 5 3 4 4 5 6 5 4 1 3 3 6 4 5 4 5 6 7 7 7 6 6 6 6 6 6 6 6 5 5 5 5 5 4 3 2 1 0 1 1 1
4 4 3 3 1 1 4 5 3 4 3 5 2 3 7 6 5 5 5 6 6 6 7 7 7 7 6 6 6 6 6 5 5 5 4 4 4 4 4 3 2 1 1 1
3 6 5 4 6 6 5 8 7 5 5 4 1 4 6 3 2 2 4 5 5 5 6 7 7 7 7 7 7 7 7 6 5 5 4 4 3 3 2 2 2 2 2 2
6 7 5 3 3 8 5 4 6 6 2 1 4 5 6 1 2 1 3 4 5 6 6 5 5 5 6 6 6 6 6 5 5 5 5 3 3 3 3 2 2 1 1 2
8 5 5 3 3 2 5 8 6 6 5 3 4 4 5 4 4 3 4 5 5 4 4 4 5 5 5 5 5 5 5 5 4 4 4 3 3 3 3 2 2 2 1 1
5 5 4 2 3 4 3 4 5 5 5 6 4 6 5 7 6 6 6 6 6 5 5 5 4 4 4 4 5 5 5 4 3 3 3 3 3 2 2 2 2 2 2 2
4 5 2 5 4 2 4 6 7 5 4 5 4 6 4 4 5 5 4 4 4 5 5 5 4 4 4 4 4 4 5 4 4 4 3 3 3 2 2 2 2 1 2 2
5 6 2 5 5 3 1 2 5 6 5 5 5 6 2 1 1 2 3 3 3 4 5 5 5 4 4 4 3 3 4 4 3 3 3 3 2 2 2 2 1 1 1 0
5 4 6 8 6 3 2 1 4 6 5 5 7 6 4 3 2 2 2 2 2 4 5 5 4 4 4 4 4 3 2 2 3 3 3 2 2 2 3 2 2 2 1 1
4 3 2 3 3 2 2 2 4 5 7 7 7 6 8 7 6 4 4 3 3 3 4 4 4 4 4 3 3 3 3 2 3 3 3 3 2 2 2 2 2 1 1 2
4 3 1 1 1 1 0 2 3 3 3 4 3 5 5 3 3 2 2 3 4 4 4 4 4 4 4 5 5 4 3 3 3 4 3 2 2 1 2 2 2 1 1 1
1 3 2 2 3 2 3 4 4 3 3 5 6 6 2 3 5 6 5 4 5 4 3 4 5 5 5 5 5 4 4 3 3 3 3 2 2 3 2 2 1 1 1 1
4 3 3 1 1 3 6 3 3 4 2 3 4 3 5 5 4 3 4 6 5 4 3 3 3 3 3 3 3 3 3 3 3 2 2 2 2 2 2 2 2 2 1 1
5 6 4 3 3 4 5 2 2 4 3 2 4 3 2 2 3 1 1 3 4 4 3 3 3 3 3 3 3 3 3 2 2 2 2 2 2 2 2 2 2 1 1 1
5 4 5 4 3 5 6 3 1 3 2 2 3 3 3 5 2 4 2 1 2 2 2 3 3 3 3 2 3 4 3 3 2 2 3 2 2 3 2 2 1 1 1 1
3 3 3 3 4 6 5 4 1 3 5 2 3 4 5 5 5 3 2 2 2 2 3 4 4 3 2 2 3 3 3 2 2 2 1 1 2 2 2 2 1 1 1 0
2 2 2 4 3 6 3 2 3 5 2 1 2 3 4 3 1 2 3 3 2 3 3 4 4 3 1 2 4 3 2 1 1 2 1 1 1 1 2 2 1 1 1 0
2 4 4 5 6 4 3 3 3 1 1 2 2 2 4 3 2 2 2 2 2 3 4 3 4 3 2 2 3 3 2 1 2 2 1 1 1 0 1 2 2 1 1 0
2 1 2 2 5 5 4 3 3 1 1 1 1 1 3 3 4 3 3 2 3 3 3 4 4 3 1 1 1 2 1 1 2 2 1 1 1 1 1 1 1 1 1 1
4 1 1 3 5 5 5 4 2 1 2 3 3 2 3 5 4 4 3 2 2 3 3 3 4 3 2 1 1 1 1 2 2 1 1 1 1 1 0 0 1 2 2 3
4 5 4 6 6 4 6 5 2 1 0 1 2 2 2 4 5 4 3 2 3 3 2 3 2 2 2 1 1 1 1 2 2 1 1 1 1 1 1 0 2 3 2 2
Wind_Direction
135 120 212 213 204 206 196 215 263 272 267 188 229 257 253 174 180 196 201 204 209 217 208 183 176 167 157 159 166 174 168 166 158 156 162 168 199 202 202 228 230 220 197 180
66 247 233 203 190 192 207 232 256 290 335 163 238 281 254 192 199 204 202 206 210 208 190 178 177 175 171 171 172 175 177 174 176 177 163 162 162 185 204 268 338 275 204 195
204 239 203 174 191 200 228 209 223 234 359 44 55 326 295 240 216 205 206 206 206 196 192 188 186 187 179 180 181 184 186 183 175 163 130 109 86 60 36 346 311 312 256 198
231 248 204 195 222 192 255 224 199 191 125 304 98 277 292 259 261 233 223 204 203 193 182 185 190 187 190 193 183 184 178 179 175 161 158 156 162 181 213 220 255 307 338 235
238 219 198 217 230 190 219 152 128 130 136 58 32 163 287 318 266 248 229 212 201 190 184 183 188 191 193 185 173 174 170 169 163 167 175 171 175 188 183 129 46 329 334 344
240 236 205 212 231 173 145 70 55 49 73 324 251 172 278 249 233 245 223 202 196 185 181 180 181 175 179 172 163 165 167 171 166 169 179 179 179 172 153 151 187 313 331 332
291 282 240 178 147 67 114 102 35 355 4 256 241 185 249 254 232 223 214 200 194 179 176 180 178 175 176 171 168 168 169 176 173 173 185 191 191 181 181 186 193 206 269 287
214 274 241 198 188 187 182 152 167 199 222 267 289 227 252 258 262 229 206 185 176 173 177 184 184 178 179 174 169 169 171 177 173 179 190 193 189 187 199 198 193 202 228 248
190 247 275 232 195 151 153 182 171 142 150 251 274 279 301 321 352 214 185 171 180 186 183 183 179 176 173 170 173 173 172 169 172 186 183 181 184 187 196 200 197 215 243 255
170 226 274 280 82 51 146 148 111 129 156 232 273 264 247 247 245 230 194 197 200 181 171 166 176 178 169 166 164 154 163 173 175 176 172 168 184 185 181 173 193 212 235 253
153 178 289 18 170 190 119 115 119 126 152 166 230 263 229 216 214 209 206 197 189 180 178 178 183 168 155 150 153 154 162 166 161 161 164 153 166 179 180 191 219 221 217 212
156 136 230 264 271 222 175 168 152 157 203 177 185 260 284 211 208 192 197 194 188 168 168 166 163 151 146 152 160 167 167 170 172 165 155 165 169 176 191 215 237 223 214 216
139 119 80 342 338 354 99 153 149 132 126 157 178 257 310 65 149 170 173 182 172 160 158 152 150 155 160 161 168 178 173 174 167 154 155 168 176 183 212 234 244 224 200 218
117 119 165 196 219 215 235 187 149 134 154 189 213 233 278 247 207 195 187 188 160 163 161 153 156 163 168 171 176 173 176 168 156 156 164 178 200 213 224 229 227 221 205 209
88 127 177 219 234 190 213 224 174 172 181 184 220 221 242 224 203 193 186 175 152 151 160 167 175 178 177 177 173 167 179 176 164 157 171 199 209 203 213 220 223 224 222 237
55 112 87 353 60 78 322 286 209 199 178 190 203 251 252 200 146 162 179 176 188 189 188 186 186 184 185 190 193 177 181 183 170 170 188 197 189 192 208 214 209 199 218 237
67 123 109 266 307 45 280 251 211 195 198 180 204 234 182 166 181 191 192 198 208 205 206 200 196 197 200 199 192 190 191 176 168 179 189 183 190 199 208 207 183 197 217 227
148 126 140 183 70 218 243 258 199 177 212 204 211 215 189 202 200 197 188 183 190 195 203 200 191 197 205 191 181 173 162 158 166 180 197 195 191 201 202 191 209 220 211 219
165 146 132 136 182 261 290 270 181 173 246 226 201 199 165 92 72 4 221 179 188 191 190 188 179 169 160 165 172 152 144 145 158 182 207 212 196 198 194 208 229 225 219 259
65 98 121 132 164 224 248 290 268 125 278 270 180 180 157 119 143 246 223 198 185 178 153 145 139 132 144 160 154 149 154 157 191 214 209 204 189 183 193 211 231 243 208 247
40 53 120 160 203 255 269 310 81 157 239 262 197 188 174 183 201 214 171 184 168 152 135 125 116 117 139 154 144 148 153 183 203 214 199 179 183 185 189 184 191 170 159 186
178 157 184 153 186 253 304 73 164 223 278 222 210 198 185 191 127 138 149 147 127 118 112 114 108 104 112 138 129 133 166 210 151 141 142 153 143 178 155 141 128 127 140 157
196 197 196 193 214 256 291 246 271 205 223 244 210 205 160 146 136 119 122 115 108 118 114 111 115 109 91 104 131 150 188 163 139 137 159 163 119 136 142 143 148 122 111 229
284 139 156 264 273 286 295 292 313 303 253 274 213 144 134 146 143 126 126 121 116 118 119 114 112 112 107 80 110 155 163 130 127 142 157 144 133 76 43 91 157 187 213 241
245 182 190 267 282 310 312 299 288 355 37 58 63 77 124 136 143 147 149 155 151 142 139 137 140 147 169 160 142 127 112 115 126 143 155 166 166 162 93 358 263 235 242 226
222 192 192 238 250 236 268 286 277 205 214 140 105 70 105 139 151 155 158 162 160 154 139 142 152 167 183 165 167 147 130 133 147 164 203 208 195 183 153 33 351 346 283 271
Height
1489 1495 1499 1495 1494 1494 1497 1501 1503 1495 1488 1491 1493 1492 1489 1488 1490 1491 1492 1493 1494 1495 1497 1499 1501 1503 1505 1507 1508 1510 1511 1512 1513 1515 1515 1517 1517 1518 1518 1519 1519 1520 1520 1520
1493 1494 1486 1486 1489 1492 1495 1501 1500 1493 1487 1490 1494 1493 1488 1488 1488 1489 1490 1491 1493 1495 1496 1498 1500 1502 1503 1504 1506 1508 1510 1512 1513 1514 1515 1516 1517 1517 1518 1519 1519 1519 1519 1519
1491 1485 1480 1484 1488 1492 1494 1497 1496 1496 1491 1490 1494 1497 1491 1488 1487 1488 1489 1490 1491 1493 1494 1496 1498 1499 1501 1502 1504 1506 1508 1510 1512 1513 1514 1515 1516 1516 1517 1517 1518 1518 1518 1518
1485 1479 1480 1484 1487 1488 1495 1486 1487 1491 1499 1506 1501 1515 1496 1490 1489 1487 1487 1487 1488 1490 1492 1494 1496 1497 1499 1500 1502 1505 1507 1508 1510 1512 1513 1513 1514 1515 1516 1517 1517 1517 1517 1517
1483 1477 1479 1483 1481 1481 1485 1481 1486 1491 1499 1507 1506 1514 1504 1493 1491 1487 1485 1485 1486 1488 1489 1491 1493 1495 1497 1499 1501 1503 1505 1507 1509 1510 1511 1512 1513 1514 1515 1516 1516 1516 1516 1516
1477 1474 1474 1475 1474 1476 1479 1485 1492 1500 1507 1519 1510 1514 1509 1495 1488 1483 1481 1482 1483 1485 1487 1489 1491 1493 1495 1497 1499 1502 1503 1505 1506 1508 1510 1510 1512 1512 1513 1514 1514 1514 1514 1514
1482 1475 1472 1471 1477 1479 1481 1498 1517 1520 1526 1522 1507 1510 1504 1483 1480 1479 1478 1479 1480 1482 1484 1486 1488 1490 1493 1495 1497 1499 1501 1502 1504 1506 1507 1509 1510 1511 1511 1512 1512 1512 1512 1512
1492 1490 1473 1469 1473 1480 1484 1492 1514 1525 1528 1520 1509 1510 1493 1478 1476 1476 1476 1477 1479 1480 1482 1484 1486 1488 1490 1492 1495 1497 1498 1500 1502 1503 1505 1506 1508 1509 1509 1510 1510 1510 1510 1510
1490 1488 1468 1465 1466 1471 1483 1491 1489 1507 1514 1520 1514 1502 1486 1477 1476 1475 1476 1477 1478 1479 1480 1482 1484 1487 1488 1491 1493 1495 1497 1498 1500 1501 1502 1504 1505 1506 1507 1507 1507 1507 1507 1508
1476 1485 1472 1466 1466 1469 1473 1482 1496 1509 1522 1525 1513 1506 1498 1483 1478 1476 1475 1475 1476 1478 1480 1482 1484 1485 1487 1489 1492 1493 1496 1497 1498 1498 1499 1501 1502 1504 1504 1504 1504 1504 1504 1504
1470 1481 1478 1472 1474 1477 1479 1484 1492 1504 1506 1519 1521 1508 1478 1476 1474 1474 1473 1473 1474 1476 1478 1481 1483 1484 1486 1488 1490 1491 1494 1494 1496 1496 1497 1498 1500 1501 1501 1501 1501 1501 1501 1501
1470 1480 1488 1478 1468 1466 1469 1476 1487 1499 1506 1509 1512 1502 1470 1470 1470 1470 1471 1472 1473 1475 1477 1479 1482 1484 1486 1487 1489 1491 1492 1493 1493 1494 1495 1496 1498 1498 1499 1499 1498 1498 1498 1498
1468 1480 1493 1490 1483 1473 1472 1474 1478 1487 1499 1509 1510 1497 1470 1469 1469 1470 1471 1471 1472 1474 1476 1477 1480 1482 1484 1486 1488 1489 1489 1490 1491 1492 1493 1494 1494 1495 1496 1496 1496 1496 1496 1496
1464 1477 1486 1492 1486 1477 1476 1474 1477 1484 1497 1502 1497 1487 1475 1471 1470 1470 1471 1472 1472 1474 1475 1476 1478 1480 1483 1484 1486 1487 1488 1489 1489 1490 1490 1491 1492 1492 1493 1494 1494 1494 1494 1494
1464 1476 1475 1474 1471 1471 1472 1472 1473 1478 1481 1488 1484 1481 1473 1469 1468 1469 1470 1471 1472 1473 1474 1476 1477 1479 1481 1483 1484 1485 1487 1487 1488 1488 1488 1488 1490 1490 1491 1491 1492 1492 1492 1492
1468 1475 1474 1474 1471 1471 1473 1471 1470 1472 1474 1477 1476 1476 1466 1466 1467 1468 1469 1470 1471 1472 1473 1475 1477 1478 1479 1481 1482 1483 1484 1485 1486 1486 1486 1486 1487 1488 1488 1489 1489 1489 1489 1489
1472 1475 1480 1483 1475 1472 1480 1472 1470 1470 1469 1471 1475 1470 1466 1467 1466 1467 1468 1469 1470 1471 1472 1473 1475 1476 1478 1479 1481 1481 1482 1483 1484 1484 1484 1484 1485 1486 1486 1487 1487 1486 1486 1486
1472 1478 1484 1486 1482 1490 1477 1463 1463 1466 1466 1465 1465 1464 1464 1464 1464 1465 1466 1467 1468 1470 1471 1473 1474 1475 1477 1478 1479 1480 1481 1481 1482 1482 1482 1483 1483 1483 1484 1484 1484 1484 1483 1483
1467 1474 1484 1490 1490 1484 1471 1464 1464 1466 1467 1462 1462 1462 1463 1464 1465 1466 1466 1467 1468 1469 1470 1471 1472 1474 1475 1477 1478 1478 1479 1480 1480 1480 1480 1481 1481 1481 1481 1481 1481 1481 1481 1480
1468 1471 1481 1488 1489 1490 1473 1461 1459 1463 1470 1461 1460 1461 1463 1464 1469 1467 1465 1466 1467 1469 1470 1470 1471 1473 1474 1475 1476 1477 1477 1478 1478 1478 1478 1479 1479 1479 1479 1479 1479 1479 1479 1478
1476 1479 1483 1486 1486 1479 1464 1460 1459 1473 1470 1459 1459 1459 1461 1462 1463 1464 1464 1465 1466 1468 1469 1470 1471 1472 1473 1474 1475 1475 1476 1476 1476 1477 1477 1477 1476 1477 1477 1477 1477 1477 1476 1476
1478 1481 1483 1486 1486 1481 1461 1460 1464 1464 1458 1457 1458 1458 1459 1460 1461 1462 1463 1464 1465 1466 1468 1469 1470 1471 1473 1474 1474 1474 1474 1475 1474 1475 1475 1475 1475 1476 1476 1475 1475 1474 1474 1473
1475 1475 1476 1476 1475 1464 1461 1460 1459 1458 1457 1457 1457 1458 1459 1460 1461 1462 1463 1464 1465 1466 1467 1469 1470 1471 1472 1472 1473 1473 1473 1473 1473 1473 1474 1474 1474 1474 1474 1473 1473 1472 1471 1471
1471 1470 1472 1472 1465 1461 1459 1459 1458 1458 1457 1456 1457 1457 1458 1459 1460 1461 1462 1463 1464 1465 1467 1468 1469 1470 1471 1471 1472 1472 1472 1471 1471 1471 1471 1472 1473 1473 1472 1472 1471 1471 1470 1470
1470 1469 1470 1469 1463 1460 1457 1457 1457 1456 1456 1456 1456 1457 1458 1458 1460 1461 1462 1463 1464 1465 1466 1467 1468 1469 1470 1471 1471 1471 1471 1471 1470 1471 1471 1471 1471 1471 1471 1471 1470 1470 1469 1469
1466 1467 1469 1467 1461 1461 1458 1457 1456 1456 1456 1456 1456 1457 1457 1458 1460 1461 1462 1463 1464 1465 1466 1467 1467 1468 1469 1469 1470 1470 1470 1470 1470 1469 1470 1470 1470 1470 1469 1469 1468 1468 1468 1467